Regional Weather Roundup
Issued by NWS

Home | Current Version | Previous Version | Text Only | Print | Product List | Glossary Off
Versions: 1 2 3 4 5 6 7 8 9 10 11 12 13 14 15 16 17 18 19 20 21 22 23 24 25 26 27 28 29 30 31 32 33 34 35 36 37 38 39 40 41 42 43 44 45 46 47 48 49 50

000
ASUS45 KABQ 071110
RWRNM
NEW MEXICO REGIONAL WEATHER ROUNDUP
NATIONAL WEATHER SERVICE ALBUQUERQUE NM
400 AM MST SUN FEB 07 2016

NOTE: "FAIR" MEANS FEW OR NO CLOUDS BELOW 12,000 FEET AGL WITH NO
       SIGNIFICANT WEATHER OR OBSTRUCTIONS TO VISION.

      THIS PRODUCT IS RELEASED AS TWO VERSIONS.  ONE VERSION NEAR
      THE TOP OF THE HOUR CONTAINING PRELIMINARY DATA FROM ALBUQUERQUE
      AND OTHER STATIONS.  A FINAL VERSION WITH ADDITIONAL DATA IS
      ISSUED ABOUT 10 MINUTES AFTER THE HOUR.

NMZ501-503-504-510>518-071200-
NORTHWEST PLATEAU/NORTHCENTRAL MOUNTAINS

CITY           SKY/WX    TMP DP  RH WIND       PRES   REMARKS
FARMINGTON     CLOUDY    16  12  84 NE6       30.39F WCI   7
LOS ALAMOS     CLOUDY    27  14  58 CALM      30.30S
SANTA FE       CLOUDY    26  15  63 NW9       30.29R WCI  17
TAOS           CLOUDY     7   1  78 N6        30.33S WCI  -3
ANGEL FIRE     FAIR      12  10  92 W12       30.27F WCI  -2

$$
NMZ402-403-502-505>509-071200-
WESTCENTRAL MOUNTAINS/SOUTHWEST MOUNTAINS

CITY           SKY/WX    TMP DP  RH WIND       PRES   REMARKS
GALLUP         CLEAR     16  13  88 CALM      30.39F
GRANTS         CLEAR     15  11  84 NW9       30.41R WCI   3
SILVER CITY      N/A     27  12  54 NW10      30.31F WCI  17

$$
NMZ407-409-411-412-071200-
SOUTHERN DESERTS

CITY           SKY/WX    TMP DP  RH WIND       PRES   REMARKS
LORDSBURG      FAIR      19  10  68 CALM      30.31S
DEMING         PTCLDY    22   8  55 NW5       30.31F WCI  16
LAS CRUCES     CLEAR     29   6  37 N8        30.30S WCI  21
HOLLOMAN AFB   CLEAR     25   3  38 NE6       30.28S WCI  18
ALAMOGORDO     CLOUDY    28   5  37 N7        30.29S WCI  21
T OR C         CLEAR     31   7  36 N6        30.31F WCI  25

$$
NMZ519>523-071200-
CENTRAL VALLEYS/CENTRAL HIGHLANDS

CITY           SKY/WX    TMP DP  RH WIND       PRES   REMARKS
ALBUQUERQUE    CLOUDY    34  14  43 N10       30.34F WCI  26
DOUBLE EAGLE   CLOUDY    24  13  64 NW7       30.34F WCI  16
MORIARTY ARPT  FAIR      26  14  62 W9        30.28F WCI  16
CLINES CORNERS CLOUDY    25  14  63 NW22      30.19F WCI  10
BELEN          FAIR      21  12  69 CALM      30.34F
SOCORRO        FAIR      27  12  53 N7        30.33F WCI  19

$$
NMZ524>526-539-540-071200-
SOUTHCENTRAL MOUNTAINS

CITY           SKY/WX    TMP DP  RH WIND       PRES   REMARKS
RUIDOSO          N/A     37   7  28 NW10G21   30.29R WCI  30

$$
NMZ527>531-071200-
NORTHEAST HIGHLANDS/NORTHEAST PLAINS

CITY           SKY/WX    TMP DP  RH WIND       PRES   REMARKS
LAS VEGAS      CLOUDY    32  13  45 N7        30.20R WCI  26
RATON          CLOUDY    21  14  74 NE9       30.16S WCI  11
CLAYTON        CLOUDY    47  13  25 NW14      30.12R

$$
NMZ532>537-071200-
EASTCENTRAL PLAINS

CITY           SKY/WX    TMP DP  RH WIND       PRES   REMARKS
TUCUMCARI      CLEAR     26  16  65 W10       30.12F WCI  16
CANNON AFB     CLEAR     32  17  54 NW6       30.11S WCI  26
CLOVIS AIRPORT CLEAR     28  14  54 W7        30.12S WCI  21

$$
NMZ028-029-538-071200-
SOUTHEAST PLAINS

CITY           SKY/WX    TMP DP  RH WIND       PRES   REMARKS
ROSWELL        CLEAR     30  12  47 CALM      30.17F
ARTESIA        CLOUDY    36  10  35 VRB5      30.18F WCI  32
CARLSBAD       CLOUDY    32  10  40 CALM      30.16S
HOBBS          CLOUDY    37   9  30 W15       30.16F WCI  28


$$



USA.gov is the U.S. government's official web portal to all federal, state and local government web resources and services.